Location: Bergnershof
(48.9468°N, 10.9431°E)
Time: 11:54:31
(UTC+00:00)

SPOT 3 Rocket - Pass Details

Date: 03 March 2021
Orbit: 778 x 795 km, 98.7° (Epoch: 13 April)

Event Time Altitude Azimuth Distance (km) Brightness Sun altitude
Exits shadow 20:18:41 50° 280° (W) 1,002 4.3 -31.8°
Drops below altitude 10° 20:23:19 10° 337° (NNW) 2,374 6.6 -32.5°
Sets 20:25:44 0° 342° (NNW) 3,309 7.4 -32.8°
